Location: Bremen
(53.0793°N, 8.8017°E)
Time: 20:14:35
(UTC+02:00)

Envisat - Pass Details

Date: 28 February 2024
Orbit: 762 x 764 km, 98.3° (Epoch: 13 April)

Event Time Altitude Azimuth Distance (km) Brightness Sun altitude
Rises 04:14:21 0° 14° (NNE) 3,245 6.8 -27.5°
Reaches altitude 10° 04:16:40 10° 14° (NNE) 2,314 5.9 -27.2°
Enters shadow 04:21:33 79° 332° (NNW) 785 2.9 -26.5°
